ONEWEB-0025 (45138 NORAD) Tracking and Keplerian Element Data

This shows tracking and keplerian element data for the satellite.

Feedback or suggestion? Click here.




ElementValue
Catalog45138
NameONEWEB-0025
Epoch Orbit923
Epoch Day93.49123491
Epoch Year2020
RAAN145.4266
Inclination87.5399
Eccentricity0.0022123
Argument of Perigee101.2822
Mean Anonmoly259.0901
Mean Motion15.0264749
Decay Rate-0.0022788
L11 45138U 20008H 20093.49123491 -.00227880 00000-0 -17576-1 0 9994
L22 45138 87.5399 145.4266 0022123 101.2822 259.0901 15.02647490 9236

Live tracking and technical data element details for ONEWEB-0025 (NORAD 45138). ONEWEB-0025 can be tracked NOW for your location showing map with azimuth and elevation plus other details from your city location.

Track the satellite on the map from your city or location and see movement details for azimuth, elevation, latitude, longitude, range, height, and movement on the map or in text.







IsCatalogInMostPopularTable: catalog: 45138, numindb: 10
Update: records affected: 1



GetName: 45138 ONEWEB-0025

Hit Count: updated at: Mon, 06 Apr 2020 12:05:03 GMT